Flag for Austria Weather past 2 weeks in Schwechat, Lower Austria, Austria

Now
70 °F

Scattered clouds.


Feels Like: 70 °F
Forecast: 51 / 62 °F
Wind: 17 mph from West

Location: Vienna Schwechat-Flughafen Airport

Current Time: Sep 21, 2014 at 6:46:57 PM

Latest Report: Sep 21, 2014 at 5:50 PM


Visibility: N/A

Pressure: 29.83 "Hg

Humidity: 60%

Dew point: 55 °F

Location of SchwechatLocation

Historic Weather in Schwechat — Graph

°F

Schwechat temperature yesterday

Maximum temperature yesterday: 77 °F (at 3:20 PM)
Minimum temperature yesterday: 57 °F (at 6:50 AM)
Average temperature yesterday: 64 °F

Past Weeks' High & Low Weather Summary

 TemperatureHumidityPressure
High77 °F (Sep 8, 3:50 PM)100% (Sep 7, 5:20 AM)30.12 "Hg (Sep 7, 5:20 AM)
Low54 °F (Sep 16, 5:20 AM)50% (Sep 21, 3:20 PM)29.80 "Hg (Sep 12, 4:20 AM)
Average62 °F84%30.00 "Hg
* Reported Sep 6 5:20 PM — Sep 21 5:50 PM, Schwechat, Weather by CustomWeather, © 2014

Note: Actual official high and low records may vary slightly from our data, if they occured in-between our weather recording intervals... More about our weather records

Advertising

Schwechat weather history for previous 24 hours

 ConditionsComfort  
Time TempWeatherWind HumidityBarometerVisibility
5:50 PM
Sep 21
70 °FScattered clouds.17 mph60%29.83 "HgN/A
5:20 PM70 °FBroken clouds.13 mph60%29.86 "HgN/A
4:50 PM72 °FBroken clouds.13 mph57%29.86 "HgN/A
4:20 PM72 °FBroken clouds.18 mph61%29.86 "HgN/A
3:50 PM75 °FBroken clouds.20 mph54%29.86 "HgN/A
3:20 PM75 °FBroken clouds.18 mph50%29.86 "HgN/A
2:50 PM75 °FScattered clouds.18 mph54%29.89 "HgN/A
2:20 PM77 °FPassing clouds.17 mph51%29.89 "HgN/A
1:50 PM77 °FPassing clouds.14 mph51%29.89 "HgN/A
1:20 PM75 °FPassing clouds.12 mph54%29.89 "HgN/A
12:50 PM75 °FScattered clouds.12 mph57%29.92 "HgN/A
12:20 PM73 °FScattered clouds.9 mph61%29.92 "HgN/A
11:50 AM75 °FPassing clouds.12 mph57%29.92 "HgN/A
11:20 AM73 °FPassing clouds.14 mph61%29.92 "HgN/A
10:50 AM73 °FPassing clouds.14 mph61%29.92 "HgN/A
10:20 AM72 °FPassing clouds.13 mph65%29.95 "HgN/A
9:50 AM72 °FPassing clouds.15 mph65%29.95 "HgN/A
9:20 AM70 °FPassing clouds.12 mph69%29.95 "HgN/A
8:50 AM68 °FSunny.9 mph73%29.92 "Hg10 mi
8:20 AM66 °FSunny.8 mph78%29.92 "Hg10 mi
7:50 AM64 °FPassing clouds.8 mph83%29.95 "HgN/A
7:20 AM64 °FPassing clouds.7 mph83%29.95 "HgN/A
6:50 AM64 °FPassing clouds.10 mph83%29.95 "HgN/A
6:20 AM64 °FClear.12 mph83%29.92 "Hg10 mi
5:50 AM64 °FClear.9 mph83%29.92 "Hg10 mi
5:20 AM64 °FClear.7 mph83%29.95 "Hg10 mi
4:50 AM64 °FClear.8 mph88%29.95 "Hg10 mi
4:20 AM61 °FPassing clouds.5 mph94%29.95 "HgN/A
3:50 AM61 °FClear.2 mph94%29.95 "Hg10 mi
3:20 AM61 °FClear.2 mph94%29.95 "Hg10 mi
2:50 AM61 °FClear.2 mph94%29.95 "Hg10 mi
2:20 AM63 °FPassing clouds.1 mph88%29.95 "HgN/A
1:50 AM63 °FPassing clouds.1 mph88%29.95 "HgN/A
1:20 AM64 °FPassing clouds.3 mph83%29.95 "HgN/A
12:50 AM63 °FPassing clouds.3 mph88%29.95 "HgN/A
12:20 AM61 °FPartly cloudy.1 mph94%29.95 "HgN/A
11:50 PM
Sep 20
63 °FPartly cloudy.3 mph88%29.95 "HgN/A
11:20 PM64 °FPartly cloudy.2 mph88%29.95 "HgN/A
10:20 PM64 °FPartly cloudy.6 mph88%29.95 "HgN/A
9:50 PM66 °FPartly cloudy.5 mph88%29.95 "HgN/A
9:20 PM66 °FPassing clouds.5 mph88%29.95 "HgN/A
8:50 PM68 °FPassing clouds.7 mph78%29.95 "HgN/A
8:20 PM66 °FPartly cloudy.6 mph83%29.95 "HgN/A
7:50 PM68 °FBroken clouds.2 mph78%29.95 "HgN/A
Weather by CustomWeather, © 2014

See weather overviewHow to use our weather pages